Retour au catalogue

STARLINK-30892

ActifCommunicationsVLEO
NORAD 58366·PAYLOAD·🇺🇸 United States

Lancé Nov 18, 2023 depuis Cape Canaveral Space Force Station

Loading…

Prochains Passages (prochaines 24 heures)

TLE

FraisSource: CelesTrak SupGP

Époque: Sep 15, 2026, 03:24 UTC

1 58366C 23177R   26258.14215278 -.00002782  00000+0 -10077-3 0  2587
2 58366  43.0036   0.7238 0001939 258.0596  12.8927 15.27573456    18

Suivez STARLINK-30892 en temps réel avec AllMySat

Download on the App Store